DAL2191 KATL-KJFK

Flight info

Callsign DAL2191
Flight time 1h 31m
Altitude 39000
Route PHIIL3 HRTWL Q64 SAWED Q108 SIE CAMRN5
Aircraft B772/H-V/N

Departure

Time 2026-05-07 06:58
Airport Hartsfield Jackson Atlanta International Airport (KATL)

Arrival

Time 2026-05-07 08:30
Airport John F. Kennedy International Airport (KJFK)
Time Latitude Longitude Altitude Speed Heading
2026-05-07 06:56 33.63878 -84.42417 1011 ft 4 kts 180°
2026-05-07 06:57 33.63756 -84.42419 1011 ft 32 kts 180°
2026-05-07 06:58 33.63561 -84.42472 1011 ft 30 kts 224°
2026-05-07 06:58 33.63464 -84.42828 1011 ft 79 kts 269°
2026-05-07 06:58 33.63463 -84.43881 1057 ft 166 kts 269°
2026-05-07 06:58 33.63627 -84.45313 1993 ft 181 kts 295°
2026-05-07 06:59 33.64709 -84.46252 3172 ft 218 kts 334°
2026-05-07 06:59 33.66455 -84.46409 3513 ft 289 kts
2026-05-07 06:59 33.68290 -84.45394 4816 ft 286 kts 40°
2026-05-07 06:59 33.69469 -84.43499 5961 ft 286 kts 73°
2026-05-07 07:00 33.69700 -84.41151 6751 ft 286 kts 97°
2026-05-07 07:00 33.69592 -84.38663 6985 ft 313 kts 97°
2026-05-07 07:00 33.69467 -84.35943 7184 ft 340 kts 97°
2026-05-07 07:00 33.69320 -84.33002 7444 ft 364 kts 97°
2026-05-07 07:01 33.69165 -84.29917 8061 ft 376 kts 96°
2026-05-07 07:01 33.69003 -84.26735 8682 ft 389 kts 96°
2026-05-07 07:01 33.68836 -84.23464 9498 ft 395 kts 96°
2026-05-07 07:01 33.68667 -84.20171 10411 ft 396 kts 95°
2026-05-07 07:02 33.68496 -84.16855 11235 ft 401 kts 95°
2026-05-07 07:02 33.68320 -84.13481 11972 ft 408 kts 95°
2026-05-07 07:02 33.68141 -84.10060 12743 ft 414 kts 94°
2026-05-07 07:02 33.67960 -84.06593 13562 ft 418 kts 94°
2026-05-07 07:03 33.67775 -84.03089 14257 ft 424 kts 94°
2026-05-07 07:03 33.67586 -83.99527 14889 ft 430 kts 94°
2026-05-07 07:03 33.67395 -83.95924 15521 ft 436 kts 94°
2026-05-07 07:03 33.67199 -83.92266 16135 ft 442 kts 94°
2026-05-07 07:04 33.66999 -83.88565 16763 ft 447 kts 94°
2026-05-07 07:04 33.66796 -83.84822 17397 ft 451 kts 94°
2026-05-07 07:04 33.66590 -83.81039 17984 ft 457 kts 94°
2026-05-07 07:04 33.66381 -83.77213 18499 ft 462 kts 94°
2026-05-07 07:05 33.66168 -83.73347 19021 ft 466 kts 94°
2026-05-07 07:05 33.65953 -83.69455 19558 ft 469 kts 94°
2026-05-07 07:05 33.65855 -83.65530 20084 ft 472 kts 89°
2026-05-07 07:05 33.66089 -83.61590 20579 ft 476 kts 83°
2026-05-07 07:06 33.66656 -83.57672 21054 ft 479 kts 77°
2026-05-07 07:06 33.67415 -83.53759 21511 ft 483 kts 76°
2026-05-07 07:06 33.68188 -83.49826 22050 ft 484 kts 76°
2026-05-07 07:06 33.68955 -83.45881 22581 ft 486 kts 76°
2026-05-07 07:07 33.69714 -83.41908 23049 ft 490 kts 77°
2026-05-07 07:07 33.70466 -83.37898 23484 ft 494 kts 77°
2026-05-07 07:07 33.71218 -83.33852 23828 ft 498 kts 77°
2026-05-07 07:07 33.71971 -83.29779 24190 ft 501 kts 77°
2026-05-07 07:08 33.72729 -83.25682 24578 ft 504 kts 77°
2026-05-07 07:08 33.73491 -83.21562 24959 ft 507 kts 77°
2026-05-07 07:08 33.74399 -83.17463 25317 ft 510 kts 71°
2026-05-07 07:08 33.75660 -83.13477 25672 ft 511 kts 65°
2026-05-07 07:09 33.77191 -83.09612 26025 ft 515 kts 59°
2026-05-07 07:09 33.79042 -83.05894 26126 ft 522 kts 54°
2026-05-07 07:09 33.81004 -83.02193 26405 ft 527 kts 54°
2026-05-07 07:09 33.82978 -82.98477 26827 ft 528 kts 54°
2026-05-07 07:10 33.84942 -82.94747 27256 ft 529 kts 54°
2026-05-07 07:10 33.86876 -82.91031 27625 ft 532 kts 55°
2026-05-07 07:10 33.88834 -82.87239 27981 ft 535 kts 55°
2026-05-07 07:10 33.90824 -82.83367 28313 ft 539 kts 55°
2026-05-07 07:11 33.92772 -82.79568 28652 ft 542 kts 56°
2026-05-07 07:11 33.94754 -82.75705 29024 ft 543 kts 56°
2026-05-07 07:11 33.96744 -82.71825 29413 ft 545 kts 56°
2026-05-07 07:11 33.98738 -82.67932 29755 ft 547 kts 56°
2026-05-07 07:12 34.00735 -82.64009 30028 ft 552 kts 56°
2026-05-07 07:12 34.02743 -82.60035 30155 ft 558 kts 56°
2026-05-07 07:12 34.04762 -82.56024 30367 ft 560 kts 56°
2026-05-07 07:12 34.06784 -82.51998 30668 ft 561 kts 56°
2026-05-07 07:13 34.08802 -82.47975 30964 ft 561 kts 56°
2026-05-07 07:13 34.10826 -82.43943 31219 ft 562 kts 56°
2026-05-07 07:13 34.12852 -82.39904 31442 ft 564 kts 56°
2026-05-07 07:13 34.14891 -82.35838 31638 ft 567 kts 55°
2026-05-07 07:14 34.16930 -82.31767 31914 ft 566 kts 55°
2026-05-07 07:14 34.18961 -82.27706 32299 ft 564 kts 55°
2026-05-07 07:14 34.20984 -82.23655 32690 ft 562 kts 55°
2026-05-07 07:14 34.23001 -82.19614 33045 ft 561 kts 56°
2026-05-07 07:15 34.25007 -82.15591 33478 ft 558 kts 56°
2026-05-07 07:15 34.27012 -82.11584 33872 ft 556 kts 55°
2026-05-07 07:15 34.29020 -82.07596 34157 ft 555 kts 55°
2026-05-07 07:15 34.31031 -82.03613 34376 ft 556 kts 55°
2026-05-07 07:16 34.33049 -81.99617 34625 ft 556 kts 55°
2026-05-07 07:16 34.35064 -81.95619 34886 ft 556 kts 55°
2026-05-07 07:16 34.37069 -81.91631 35166 ft 555 kts 55°
2026-05-07 07:16 34.39071 -81.87639 35438 ft 555 kts 55°
2026-05-07 07:17 34.41071 -81.83647 35695 ft 554 kts 55°
2026-05-07 07:17 34.43070 -81.79649 35952 ft 554 kts 55°
2026-05-07 07:17 34.45064 -81.75658 36207 ft 554 kts 55°
2026-05-07 07:17 34.47061 -81.71657 36328 ft 558 kts 56°
2026-05-07 07:18 34.51100 -81.63555 36583 ft 561 kts 55°
2026-05-07 07:18 34.53104 -81.59521 37062 ft 556 kts 55°
2026-05-07 07:18 34.55093 -81.55512 37322 ft 555 kts 55°
2026-05-07 07:19 34.57088 -81.51492 37471 ft 557 kts 55°
2026-05-07 07:19 34.59088 -81.47459 37619 ft 558 kts 55°
2026-05-07 07:19 34.61091 -81.43417 37800 ft 559 kts 55°
2026-05-07 07:19 34.63092 -81.39371 38026 ft 559 kts 55°
2026-05-07 07:20 34.65091 -81.35325 38237 ft 559 kts 55°
2026-05-07 07:20 34.67091 -81.31271 38439 ft 559 kts 55°
2026-05-07 07:20 34.69087 -81.27219 38592 ft 561 kts 54°
2026-05-07 07:20 34.71100 -81.23131 38612 ft 565 kts 54°
2026-05-07 07:21 34.75123 -81.14945 38796 ft 569 kts 54°
2026-05-07 07:21 34.79171 -81.06662 38926 ft 572 kts 56°
2026-05-07 07:22 34.82686 -80.97935 38925 ft 574 kts 63°
2026-05-07 07:22 34.85879 -80.89067 38963 ft 570 kts 63°
2026-05-07 07:23 34.89061 -80.80247 38940 ft 567 kts 62°
2026-05-07 07:23 34.92282 -80.71457 38932 ft 571 kts 62°
2026-05-07 07:24 34.95549 -80.62571 38927 ft 578 kts 62°
2026-05-07 07:24 34.98837 -80.53586 38970 ft 582 kts 62°
2026-05-07 07:25 35.03163 -80.41685 38934 ft 570 kts 62°
2026-05-07 07:26 35.06369 -80.32849 38936 ft 569 kts 62°
2026-05-07 07:26 35.09568 -80.24017 38952 ft 569 kts 62°
2026-05-07 07:27 35.12769 -80.15154 38986 ft 573 kts 62°
2026-05-07 07:27 35.15990 -80.06201 38936 ft 577 kts 62°
2026-05-07 07:28 35.19213 -79.97217 38928 ft 577 kts 62°
2026-05-07 07:28 35.22432 -79.88223 38922 ft 577 kts 62°
2026-05-07 07:29 35.25637 -79.79237 38934 ft 576 kts 62°
2026-05-07 07:29 35.28827 -79.70266 38936 ft 574 kts 62°
2026-05-07 07:30 35.32004 -79.61306 38959 ft 574 kts 62°
2026-05-07 07:30 35.35199 -79.52282 38981 ft 581 kts 62°
2026-05-07 07:31 35.38400 -79.43208 38979 ft 587 kts 62°
2026-05-07 07:31 35.41594 -79.34105 38958 ft 572 kts 62°
2026-05-07 07:32 35.44715 -79.25190 38955 ft 569 kts 62°
2026-05-07 07:32 35.47846 -79.16248 38959 ft 571 kts 62°
2026-05-07 07:33 35.50974 -79.07277 38953 ft 572 kts 62°
2026-05-07 07:33 35.54098 -78.98286 38953 ft 573 kts 61°
2026-05-07 07:34 35.57221 -78.89267 38942 ft 574 kts 62°
2026-05-07 07:34 35.60336 -78.80250 38930 ft 574 kts 62°
2026-05-07 07:35 35.63457 -78.71229 38936 ft 573 kts 61°
2026-05-07 07:35 35.66578 -78.62230 38931 ft 572 kts 61°
2026-05-07 07:36 35.69687 -78.53221 38944 ft 572 kts 61°
2026-05-07 07:36 35.72801 -78.44173 38949 ft 577 kts 62°
2026-05-07 07:37 35.75934 -78.35020 38944 ft 583 kts 62°
2026-05-07 07:37 35.79076 -78.25772 38940 ft 587 kts 62°
2026-05-07 07:38 35.82223 -78.16481 38943 ft 588 kts 62°
2026-05-07 07:38 35.85337 -78.07250 38936 ft 579 kts 62°
2026-05-07 07:39 35.88417 -77.98112 38930 ft 577 kts 62°
2026-05-07 07:39 35.91479 -77.89012 38936 ft 582 kts 61°
2026-05-07 07:40 35.94589 -77.79734 38959 ft 588 kts 60°
2026-05-07 07:40 35.98343 -77.70856 38960 ft 579 kts 49°
2026-05-07 07:41 36.03087 -77.62917 38957 ft 568 kts 38°
2026-05-07 07:41 36.08433 -77.55825 38955 ft 556 kts 36°
2026-05-07 07:42 36.13692 -77.48899 38943 ft 554 kts 36°
2026-05-07 07:42 36.18960 -77.41853 38937 ft 561 kts 36°
2026-05-07 07:43 36.24246 -77.34699 38943 ft 565 kts 36°
2026-05-07 07:43 36.29569 -77.27486 38947 ft 568 kts 36°
2026-05-07 07:44 36.35132 -77.20643 38959 ft 559 kts 30°
2026-05-07 07:44 36.40868 -77.14286 38935 ft 548 kts 29°
2026-05-07 07:45 36.46560 -77.08012 38931 ft 546 kts 29°
2026-05-07 07:45 36.52215 -77.01708 38928 ft 546 kts 30°
2026-05-07 07:46 36.57887 -76.95340 38943 ft 554 kts 30°
2026-05-07 07:46 36.63632 -76.88863 38945 ft 560 kts 30°
2026-05-07 07:47 36.69425 -76.82310 38948 ft 564 kts 30°
2026-05-07 07:47 36.75180 -76.75770 38943 ft 556 kts 30°
2026-05-07 07:48 36.80915 -76.69263 38943 ft 559 kts 30°
2026-05-07 07:48 36.86682 -76.62717 38933 ft 562 kts 30°
2026-05-07 07:49 36.92467 -76.56129 38932 ft 564 kts 30°
2026-05-07 07:49 36.98276 -76.49493 38883 ft 567 kts 30°
2026-05-07 07:50 37.04085 -76.42839 38898 ft 565 kts 30°
2026-05-07 07:50 37.09866 -76.36201 38901 ft 563 kts 30°
2026-05-07 07:51 37.15627 -76.29578 38917 ft 561 kts 30°
2026-05-07 07:51 37.21368 -76.22967 38891 ft 560 kts 30°
2026-05-07 07:52 37.27101 -76.16351 38877 ft 560 kts 31°
2026-05-07 07:52 37.32829 -76.09725 38889 ft 559 kts 30°
2026-05-07 07:53 37.38550 -76.03091 38888 ft 560 kts 30°
2026-05-07 07:53 37.44242 -75.96477 38884 ft 561 kts 30°
2026-05-07 07:54 37.49973 -75.89803 38881 ft 563 kts 30°
2026-05-07 07:54 37.55988 -75.83713 38870 ft 544 kts 19°
2026-05-07 07:55 37.62406 -75.78912 38880 ft 535 kts 15°
2026-05-07 07:55 37.68860 -75.74182 38875 ft 537 kts 16°
2026-05-07 07:56 37.75281 -75.69354 38866 ft 537 kts 16°
2026-05-07 07:56 37.81615 -75.64556 38871 ft 537 kts 16°
2026-05-07 07:57 37.87958 -75.59482 38859 ft 544 kts 20°
2026-05-07 07:57 37.94180 -75.54018 38872 ft 545 kts 21°
2026-05-07 07:58 38.00411 -75.48545 38906 ft 545 kts 20°
2026-05-07 07:58 38.06687 -75.43112 38882 ft 545 kts 19°
2026-05-07 07:59 38.13043 -75.37938 38881 ft 542 kts 18°
2026-05-07 07:59 38.19426 -75.32773 38870 ft 543 kts 18°
2026-05-07 07:59 38.22668 -75.30449 38880 ft 527 kts 10°
2026-05-07 08:00 38.26007 -75.28657 38879 ft 512 kts
2026-05-07 08:00 38.32736 -75.26354 38413 ft 489 kts 352°
2026-05-07 08:00 38.36071 -75.25718 38044 ft 484 kts 351°
2026-05-07 08:01 38.39397 -75.25101 37690 ft 484 kts 352°
2026-05-07 08:01 38.42747 -75.24453 37377 ft 488 kts 352°
2026-05-07 08:01 38.46114 -75.23766 37017 ft 490 kts 353°
2026-05-07 08:01 38.49479 -75.23061 36664 ft 492 kts 353°
2026-05-07 08:02 38.52857 -75.22338 36317 ft 493 kts 353°
2026-05-07 08:02 38.56243 -75.21610 35972 ft 494 kts 353°
2026-05-07 08:02 38.59631 -75.20882 35635 ft 495 kts 353°
2026-05-07 08:02 38.63029 -75.20156 35301 ft 496 kts 353°
2026-05-07 08:03 38.66444 -75.19342 34995 ft 507 kts 359°
2026-05-07 08:03 38.69872 -75.17919 34683 ft 530 kts
2026-05-07 08:03 38.73240 -75.15811 34368 ft 549 kts 18°
2026-05-07 08:03 38.76447 -75.13017 34055 ft 565 kts 25°
2026-05-07 08:04 38.79565 -75.09904 33719 ft 569 kts 27°
2026-05-07 08:04 38.82661 -75.06729 33354 ft 570 kts 28°
2026-05-07 08:04 38.85758 -75.03562 33028 ft 569 kts 28°
2026-05-07 08:04 38.88879 -75.00420 32665 ft 569 kts 27°
2026-05-07 08:05 38.92011 -74.97315 32341 ft 568 kts 27°
2026-05-07 08:05 38.95109 -74.94274 31983 ft 569 kts 27°
2026-05-07 08:05 38.98254 -74.91194 31605 ft 569 kts 28°
2026-05-07 08:05 39.01403 -74.88102 31246 ft 570 kts 28°
2026-05-07 08:06 39.04554 -74.84995 30921 ft 567 kts 29°
2026-05-07 08:06 39.07651 -74.81925 30489 ft 557 kts 29°
2026-05-07 08:06 39.10686 -74.78909 29920 ft 543 kts 30°
2026-05-07 08:06 39.13574 -74.75882 29218 ft 527 kts 32°
2026-05-07 08:07 39.16320 -74.72877 28552 ft 511 kts 32°
2026-05-07 08:07 39.18969 -74.69941 27903 ft 496 kts 32°
2026-05-07 08:07 39.21561 -74.67081 27271 ft 483 kts 32°
2026-05-07 08:07 39.24088 -74.64316 26698 ft 472 kts 31°
2026-05-07 08:08 39.26574 -74.61616 26077 ft 463 kts 31°
2026-05-07 08:08 39.29017 -74.58972 25506 ft 454 kts 31°
2026-05-07 08:08 39.31416 -74.56375 24931 ft 447 kts 31°
2026-05-07 08:08 39.33789 -74.53803 24369 ft 441 kts 31°
2026-05-07 08:09 39.36123 -74.51270 23828 ft 436 kts 31°
2026-05-07 08:09 39.38428 -74.48764 23271 ft 431 kts 31°
2026-05-07 08:09 39.40706 -74.46281 22636 ft 426 kts 32°
2026-05-07 08:09 39.42960 -74.43822 22032 ft 422 kts 32°
2026-05-07 08:10 39.45193 -74.41385 21449 ft 418 kts 32°
2026-05-07 08:10 39.47403 -74.38971 20842 ft 414 kts 33°
2026-05-07 08:10 39.49595 -74.36575 20249 ft 410 kts 33°
2026-05-07 08:10 39.51767 -74.34199 19668 ft 407 kts 33°
2026-05-07 08:11 39.53917 -74.31846 19121 ft 404 kts 33°
2026-05-07 08:11 39.56049 -74.29510 18624 ft 398 kts 33°
2026-05-07 08:11 39.58141 -74.27213 18248 ft 391 kts 33°
2026-05-07 08:11 39.60223 -74.24929 17842 ft 393 kts 34°
2026-05-07 08:12 39.62311 -74.22639 17445 ft 393 kts 34°
2026-05-07 08:12 39.63693 -74.21121 17167 ft 391 kts 34°
2026-05-07 08:12 39.65753 -74.18852 16759 ft 386 kts 34°
2026-05-07 08:12 39.67788 -74.16610 16363 ft 381 kts 34°
2026-05-07 08:13 39.69798 -74.14395 15960 ft 377 kts 34°
2026-05-07 08:13 39.72421 -74.11500 15435 ft 371 kts 34°
2026-05-07 08:13 39.74371 -74.09349 15059 ft 367 kts 34°
2026-05-07 08:13 39.75684 -74.07898 14789 ft 364 kts 34°
2026-05-07 08:14 39.77602 -74.05778 14399 ft 360 kts 35°
2026-05-07 08:14 39.79500 -74.03680 14049 ft 356 kts 35°
2026-05-07 08:14 39.81373 -74.01607 13747 ft 352 kts 36°
2026-05-07 08:14 39.83234 -73.99546 13364 ft 350 kts 35°
2026-05-07 08:15 39.85142 -73.97642 12984 ft 342 kts 26°
2026-05-07 08:15 39.87200 -73.96128 12645 ft 337 kts 21°
2026-05-07 08:15 39.89288 -73.94745 12294 ft 336 kts 20°
2026-05-07 08:15 39.91372 -73.93362 11934 ft 336 kts 21°
2026-05-07 08:16 39.93434 -73.91958 11591 ft 331 kts 22°
2026-05-07 08:16 39.95427 -73.90568 11225 ft 320 kts 22°
2026-05-07 08:16 39.97379 -73.89192 10895 ft 317 kts 22°
2026-05-07 08:16 39.99277 -73.87845 10660 ft 303 kts 22°
2026-05-07 08:17 40.01105 -73.86545 10352 ft 298 kts 22°
2026-05-07 08:17 40.02935 -73.85316 10064 ft 294 kts 19°
2026-05-07 08:17 40.04780 -73.84206 9791 ft 291 kts 18°
2026-05-07 08:17 40.06624 -73.83124 9475 ft 290 kts 18°
2026-05-07 08:18 40.08456 -73.82051 9166 ft 288 kts 18°
2026-05-07 08:18 40.10279 -73.80979 8851 ft 287 kts 19°
2026-05-07 08:18 40.12092 -73.79907 8559 ft 285 kts 19°
2026-05-07 08:18 40.13890 -73.78838 8257 ft 284 kts 19°
2026-05-07 08:19 40.15681 -73.77768 7959 ft 282 kts 19°
2026-05-07 08:19 40.17466 -73.76703 7668 ft 281 kts 19°
2026-05-07 08:19 40.19242 -73.75643 7365 ft 280 kts 19°
2026-05-07 08:19 40.21011 -73.74587 7082 ft 279 kts 19°
2026-05-07 08:20 40.22772 -73.73532 6802 ft 278 kts 19°
2026-05-07 08:20 40.24528 -73.72480 6499 ft 277 kts 19°
2026-05-07 08:20 40.26267 -73.71436 6221 ft 275 kts 20°
2026-05-07 08:20 40.27999 -73.70397 5917 ft 273 kts 20°
2026-05-07 08:21 40.29695 -73.69377 5633 ft 270 kts 20°
2026-05-07 08:21 40.31392 -73.68355 5369 ft 266 kts 20°
2026-05-07 08:21 40.33057 -73.67353 5111 ft 261 kts 20°
2026-05-07 08:21 40.34693 -73.66368 4880 ft 257 kts 20°
2026-05-07 08:22 40.36299 -73.65400 4632 ft 253 kts 20°
2026-05-07 08:22 40.37889 -73.64444 4367 ft 249 kts 20°
2026-05-07 08:22 40.39455 -73.63499 4120 ft 246 kts 19°
2026-05-07 08:22 40.40993 -73.62571 3903 ft 240 kts 19°
2026-05-07 08:23 40.42491 -73.61666 3702 ft 235 kts 19°
2026-05-07 08:23 40.43962 -73.60778 3501 ft 230 kts 19°
2026-05-07 08:23 40.45400 -73.59910 3295 ft 226 kts 19°
2026-05-07 08:23 40.46814 -73.59056 3116 ft 222 kts 19°
2026-05-07 08:24 40.48194 -73.58220 3035 ft 215 kts 19°
2026-05-07 08:24 40.49554 -73.57399 3004 ft 217 kts 19°
2026-05-07 08:24 40.50943 -73.56622 2986 ft 214 kts
2026-05-07 08:24 40.52329 -73.56694 2975 ft 192 kts 332°
2026-05-07 08:25 40.53315 -73.57728 2999 ft 180 kts 311°
2026-05-07 08:25 40.54145 -73.58960 2991 ft 180 kts 307°
2026-05-07 08:25 40.54914 -73.60249 2995 ft 179 kts 306°
2026-05-07 08:25 40.55657 -73.61564 2973 ft 181 kts 303°
2026-05-07 08:26 40.57005 -73.64397 2472 ft 177 kts 302°
2026-05-07 08:26 40.57605 -73.65721 2238 ft 159 kts 304°
2026-05-07 08:26 40.58138 -73.66893 2041 ft 146 kts 303°
2026-05-07 08:27 40.58644 -73.68015 1836 ft 137 kts 304°
2026-05-07 08:27 40.59111 -73.69046 1664 ft 126 kts 306°
2026-05-07 08:27 40.59557 -73.70025 1505 ft 123 kts 306°
2026-05-07 08:27 40.59998 -73.70998 1354 ft 124 kts 305°
2026-05-07 08:28 40.60449 -73.71994 1149 ft 128 kts 305°
2026-05-07 08:28 40.60906 -73.73004 982 ft 129 kts 305°
2026-05-07 08:28 40.61392 -73.73994 813 ft 130 kts 304°
2026-05-07 08:28 40.61843 -73.75034 578 ft 130 kts 301°
2026-05-07 08:29 40.62275 -73.76046 392 ft 124 kts 301°
2026-05-07 08:29 40.62725 -73.77045 221 ft 128 kts 303°
2026-05-07 08:29 40.63184 -73.78042 83 ft 127 kts 303°
2026-05-07 08:29 40.63630 -73.79010 31 ft 113 kts 302°
2026-05-07 08:30 40.63964 -73.79745 31 ft 74 kts 301°
2026-05-07 08:30 40.64125 -73.80080 29 ft 33 kts 312°
2026-05-07 08:30 40.64292 -73.80182 27 ft 13 kts 35°
2026-05-07 08:30 40.64295 -73.80094 26 ft 10 kts 114°
2026-05-07 08:31 40.64287 -73.80072 27 ft 0 kts 117°
2026-05-07 08:32 40.64255 -73.80010 28 ft 19 kts 126°
2026-05-07 08:32 40.64136 -73.79836 29 ft 28 kts 127°
2026-05-07 08:32 40.64032 -73.79616 27 ft 28 kts 121°
2026-05-07 08:33 40.63932 -73.79395 32 ft 28 kts 121°
2026-05-07 08:33 40.63831 -73.79173 26 ft 28 kts 121°
2026-05-07 08:33 40.63731 -73.78951 28 ft 28 kts 121°
2026-05-07 08:33 40.63630 -73.78729 31 ft 28 kts 121°
2026-05-07 08:34 40.63551 -73.78557 31 ft 19 kts 121°
2026-05-07 08:34 40.63483 -73.78411 30 ft 19 kts 121°
2026-05-07 08:34 40.63525 -73.78291 30 ft 17 kts 30°
2026-05-07 08:34 40.63621 -73.78258 27 ft 10 kts 356°
2026-05-07 08:35 40.63662 -73.78247 27 ft 5 kts 52°
2026-05-07 08:35 40.63668 -73.78204 27 ft 5 kts 83°
2026-05-07 08:35 40.63672 -73.78161 27 ft 3 kts 83°
2026-05-07 08:35 40.63672 -73.78160 27 ft 0 kts 83°